HELX

Details ICAO HELX (LXR)
Name LUXOR INTL
Region Egypt
Timezone Africa/Cairo (UTC+2.0)
Plans Departing 74
Arriving 92
Stats Elevation 294 ft / 90 m (AMSL)
Location 25.671086° 32.706403°
Runways 1
Magnetic Variation 4.118° E
Sunrise 2018-05-23 03:01:49 UTC / 2018-05-23 05:01:49 Local
Sunset 2018-05-23 16:32:53 UTC / 2018-05-23 18:32:53 Local
Advertisement - Login to hide

Runways

ID Width Length Bearing (true) Bearing (mag) Surface Threshold Offset Overrun Length
02 148 ft / 45 m 9,874 ft / 3,010 m 22.46° 18.34° Asphalt 0 ft / 0 m 215 ft / 66 m
20 148 ft / 45 m 9,874 ft / 3,010 m 202.47° 198.35° Asphalt 0 ft / 0 m 215 ft / 66 m

Approach Navaids

Runway Type Ident Frequency Range Bearing (true) Bearing (mag) Slope Elevation
20 Localiser XIL 111.10 MHz 18 nm / 33 km 202.41° 198.30° - 303 ft / 92 m (AMSL)
20 Glidescope XIL 111.10 MHz 10 nm / 19 km 202.46° 198.35° 3.00° 326 ft / 99 m (AMSL)
20 DME XIL 111.10 MHz 18 nm / 33 km - - - 326 ft / 99 m (AMSL)

Map

Weather


0- 5 10 15 20 25 30 35+ Temperature / ° C

Clouds and Precipitation
Forecast for 2018-05-23 12:00 UTC. Updated 2 hours ago

Ground ~20,000 ft ~40,000 ft Winds

METAR

HELX 231200Z 32006KT CAVOK 44/13 Q1010 NOSIG

TAF

TAF HELX 231100Z 2312/2418 33010KT CAVOK

Frequencies

Ground 121.90 MHz GND
Tower 119.90 MHz TWR
Approach 118.10 MHz RADAR
Tower 118.10 MHz TWR
Approach 124.30 MHz RADAR
Warning: Do not use this data for real-world aviation or navigation. No guarantee of current accuracy is given.